COSMOS 2513

Last updated on Mon Sep 07 2026 00:02:59 GMT+0000 (Coordinated Universal Time)

1 41121U 15075A 26249.60768172 -.00000154 00000+0 00000+0 0 9996 2 41121 0.0446 105.4506 0001088 84.3410 94.9193 1.00270329 39363
UTC large
Height (km)
Speed (km/s)
/
Latitude / Longitude
Inclination (degrees)
Orbital Period (minutes)
Azimuth
Elevation
Range (km)
Doppler Factor

Next 0 passes for location: London (51.5072 / 0.1276)

No passes found over London.
COSMOS 2513